Hourly Weather Bolshie Duravki

Today, 20 June, Sunday

Time Temperature Precipitation Wind Pressure Humidity
00:00 +19°C° 0 mm 2 mps 747 mmHg 89%
01:00 +19°C° 0 mm 2 mps 747 mmHg 91%
02:00 +18°C° 0 mm 2 mps 747 mmHg 92%
03:00 +19°C° 0 mm 2 mps 747 mmHg 92%
04:00 +19°C° 0 mm 2 mps 747 mmHg 93%
05:00 +21°C° 0 mm 1 mps 747 mmHg 93%
06:00 +21°C° 0 mm 2 mps 747 mmHg 88%
07:00 +24°C° 0 mm 2 mps 747 mmHg 83%
08:00 +25°C° 0 mm 2 mps 747 mmHg 79%
09:00 +26°C° 0 mm 2 mps 747 mmHg 74%
10:00 +27°C° 0 mm 3 mps 747 mmHg 70%
11:00 +28°C° 0 mm 3 mps 747 mmHg 66%
12:00 +28°C° 0 mm 3 mps 747 mmHg 64%
13:00 +29°C° 0 mm 3 mps 746 mmHg 61%
14:00 +29°C° 0 mm 2 mps 746 mmHg 59%
15:00 +29°C° 0 mm 2 mps 746 mmHg 62%
16:00 +29°C° 0 mm 2 mps 746 mmHg 65%
17:00 +29°C° 0 mm 2 mps 746 mmHg 68%
18:00 +27°C° 0 mm 2 mps 745 mmHg 73%
19:00 +25°C° 0 mm 2 mps 745 mmHg 77%
20:00 +24°C° 0 mm 2 mps 745 mmHg 82%
21:00 +23°C° 0 mm 2 mps 745 mmHg 82%
22:00 +21°C° 0 mm 2 mps 745 mmHg 83%
23:00 +20°C° 0 mm 2 mps 745 mmHg 83%

Tomorrow, 21 June, Monday

Time Temperature Precipitation Wind Pressure Humidity
00:00 +20°C° 0 mm 2 mps 745 mmHg 83%
01:00 +19°C° 0 mm 2 mps 745 mmHg 83%
02:00 +19°C° 0 mm 2 mps 745 mmHg 83%
03:00 +19°C° 0 mm 2 mps 745 mmHg 85%
04:00 +19°C° 0 mm 2 mps 745 mmHg 88%
05:00 +18°C° 0 mm 2 mps 745 mmHg 90%
06:00 +20°C° 0 mm 3 mps 745 mmHg 85%
07:00 +21°C° 0 mm 3 mps 745 mmHg 79%
08:00 +23°C° 0 mm 4 mps 745 mmHg 74%
09:00 +25°C° 0 mm 4 mps 745 mmHg 69%
10:00 +26°C° 0 mm 4 mps 745 mmHg 64%
11:00 +27°C° 0 mm 5 mps 745 mmHg 60%
12:00 +28°C° 0 mm 5 mps 745 mmHg 58%
13:00 +28°C° 0 mm 5 mps 745 mmHg 57%
14:00 +29°C° 0 mm 4 mps 744 mmHg 56%
15:00 +29°C° 0 mm 4 mps 744 mmHg 59%
16:00 +29°C° 0 mm 4 mps 744 mmHg 63%
17:00 +28°C° 0 mm 4 mps 744 mmHg 66%
18:00 +27°C° 0 mm 3 mps 744 mmHg 72%
19:00 +26°C° 0 mm 3 mps 744 mmHg 78%
20:00 +24°C° 0 mm 3 mps 744 mmHg 83%
21:00 +22°C° 0 mm 3 mps 744 mmHg 86%
22:00 +21°C° 0 mm 3 mps 744 mmHg 89%
23:00 +20°C° 0 mm 3 mps 744 mmHg 91%

Day after tomorrow, 22 June, Tuesday

Time Temperature Precipitation Wind Pressure Humidity
00:00 +20°C° 0 mm 3 mps 744 mmHg 93%
01:00 +19°C° 0 mm 3 mps 744 mmHg 94%
02:00 +19°C° 0 mm 3 mps 744 mmHg 96%
03:00 +19°C° 0 mm 3 mps 744 mmHg 95%
04:00 +19°C° 0 mm 3 mps 744 mmHg 94%
05:00 +19°C° 0 mm 3 mps 744 mmHg 94%
06:00 +21°C° 0 mm 4 mps 744 mmHg 87%
07:00 +23°C° 0 mm 4 mps 744 mmHg 81%
08:00 +25°C° 0 mm 5 mps 744 mmHg 74%
09:00 +26°C° 0 mm 5 mps 744 mmHg 69%
10:00 +28°C° 0 mm 5 mps 744 mmHg 63%
11:00 +29°C° 0 mm 5 mps 744 mmHg 58%
12:00 +30°C° 0 mm 5 mps 744 mmHg 57%
13:00 +30°C° 0 mm 5 mps 744 mmHg 57%
14:00 +32°C° 0 mm 4 mps 744 mmHg 56%
15:00 +32°C° 0 mm 4 mps 744 mmHg 59%
16:00 +30°C° 0 mm 4 mps 744 mmHg 62%
17:00 +30°C° 0 mm 4 mps 744 mmHg 65%
18:00 +28°C° 0 mm 3 mps 744 mmHg 71%
19:00 +27°C° 0 mm 3 mps 744 mmHg 76%
20:00 +25°C° 0 mm 3 mps 744 mmHg 82%
21:00 +24°C° 0 mm 3 mps 744 mmHg 84%
22:00 +22°C° 0 mm 3 mps 744 mmHg 87%
23:00 +20°C° 0 mm 3 mps 744 mmHg 89%

23 June, Wednesday

Time Temperature Precipitation Wind Pressure Humidity
00:00 +20°C° 0 mm 3 mps 744 mmHg 91%
01:00 +20°C° 0 mm 3 mps 744 mmHg 92%
02:00 +19°C° 0 mm 2 mps 745 mmHg 93%
03:00 +20°C° 0 mm 2 mps 745 mmHg 93%
04:00 +20°C° 0 mm 2 mps 745 mmHg 94%
05:00 +20°C° 0 mm 2 mps 745 mmHg 94%
06:00 +22°C° 0 mm 3 mps 745 mmHg 89%
07:00 +25°C° 0 mm 3 mps 745 mmHg 83%
08:00 +27°C° 0 mm 3 mps 745 mmHg 77%
09:00 +28°C° 0 mm 4 mps 745 mmHg 71%
10:00 +29°C° 0 mm 4 mps 745 mmHg 65%
11:00 +32°C° 0 mm 4 mps 745 mmHg 60%
12:00 +32°C° 0 mm 4 mps 745 mmHg 58%
13:00 +33°C° 0 mm 4 mps 745 mmHg 56%
14:00 +33°C° 0 mm 4 mps 745 mmHg 54%
15:00 +33°C° 0 mm 4 mps 745 mmHg 58%
16:00 +31°C° 0 mm 3 mps 745 mmHg 61%
17:00 +31°C° 0 mm 2 mps 745 mmHg 65%
18:00 +29°C° 0 mm 3 mps 745 mmHg 69%
19:00 +28°C° 0 mm 3 mps 745 mmHg 73%
20:00 +26°C° 0 mm 3 mps 745 mmHg 77%
21:00 +25°C° 0 mm 3 mps 745 mmHg 79%
22:00 +24°C° 0 mm 3 mps 745 mmHg 81%
23:00 +22°C° 0 mm 3 mps 745 mmHg 84%

24 June, Thursday

Time Temperature Precipitation Wind Pressure Humidity
00:00 +21°C° 0 mm 3 mps 745 mmHg 87%
01:00 +21°C° 0 mm 2 mps 745 mmHg 90%
02:00 +21°C° 0 mm 2 mps 745 mmHg 93%
03:00 +21°C° 0 mm 2 mps 745 mmHg 93%
04:00 +21°C° 0 mm 2 mps 745 mmHg 93%
05:00 +23°C° 0 mm 2 mps 745 mmHg 93%
06:00 +24°C° 0 mm 2 mps 745 mmHg 87%
07:00 +26°C° 0 mm 2 mps 745 mmHg 80%
08:00 +27°C° 0 mm 3 mps 745 mmHg 74%
09:00 +29°C° 0 mm 3 mps 745 mmHg 69%
10:00 +30°C° 0 mm 3 mps 745 mmHg 63%
11:00 +32°C° 0 mm 4 mps 746 mmHg 58%
12:00 +32°C° 0 mm 4 mps 745 mmHg 55%
13:00 +33°C° 0 mm 4 mps 745 mmHg 53%
14:00 +33°C° 0 mm 3 mps 745 mmHg 51%
15:00 +33°C° 0 mm 3 mps 745 mmHg 54%
16:00 +33°C° 0 mm 3 mps 745 mmHg 58%
17:00 +33°C° 0 mm 3 mps 744 mmHg 61%
18:00 +30°C° 0 mm 2 mps 744 mmHg 67%
19:00 +28°C° 0 mm 2 mps 743 mmHg 72%
20:00 +27°C° 0 mm 2 mps 743 mmHg 77%
21:00 +26°C° 0 mm 2 mps 743 mmHg 79%
22:00 +25°C° 0 mm 2 mps 743 mmHg 81%
23:00 +24°C° 0 mm 2 mps 744 mmHg 82%

25 June, Friday

Time Temperature Precipitation Wind Pressure Humidity
00:00 +23°C° 0 mm 2 mps 743 mmHg 85%
01:00 +23°C° 0 mm 2 mps 743 mmHg 88%
02:00 +21°C° 0 mm 3 mps 743 mmHg 91%
03:00 +21°C° 0 mm 3 mps 743 mmHg 91%
04:00 +23°C° 0 mm 2 mps 743 mmHg 91%
05:00 +23°C° 0 mm 2 mps 743 mmHg 91%
06:00 +24°C° 0 mm 3 mps 743 mmHg 86%
07:00 +26°C° 0 mm 3 mps 743 mmHg 80%
08:00 +27°C° 0 mm 4 mps 743 mmHg 75%
09:00 +28°C° 0 mm 4 mps 743 mmHg 70%
10:00 +29°C° 0 mm 4 mps 743 mmHg 65%
11:00 +30°C° 0 mm 4 mps 743 mmHg 60%
12:00 +30°C° 0.1 mm 4 mps 743 mmHg 59%
13:00 +30°C° 0.1 mm 4 mps 742 mmHg 59%
14:00 +32°C° 0.1 mm 4 mps 742 mmHg 58%
15:00 +28°C° 0.4 mm 4 mps 742 mmHg 68%
16:00 +26°C° 0.4 mm 4 mps 742 mmHg 77%
17:00 +23°C° 0.4 mm 4 mps 741 mmHg 86%
18:00 +22°C° 0.2 mm 3 mps 741 mmHg 87%
19:00 +21°C° 0.2 mm 2 mps 741 mmHg 88%
20:00 +22°C° 0.2 mm 1 mps 741 mmHg 89%
21:00 +21°C° 0.7 mm 1 mps 741 mmHg 90%
22:00 +20°C° 0.7 mm 1 mps 741 mmHg 91%
23:00 +20°C° 0.7 mm 1 mps 741 mmHg 93%
Show more